Location: Juzet
(42.9779°N, 0.7597°E)
Time: 01:59:13
(UTC+00:00)

Cosmos 1908 Rocket - Pass Details

Date: 14 July 2020
Orbit: 605 x 633 km, 82.5° (Epoch: 04 August)

Event Time Altitude Azimuth Distance (km) Brightness Sun altitude
Exits shadow 03:05:55 15° 190° (S) 1,728 5.3 -12.9°
Maximum altitude 03:09:41 82° 278° (W) 644 3.6 -12.4°
Drops below altitude 10° 03:14:10 10° 6° (N) 2,021 7.0 -11.9°
Sets 03:16:25 0° 8° (N) 2,930 7.9 -11.6°
